Back to catalog

COSMOS 2251 DEB

AliveLEO
NORAD 34035·DEBRIS·🇷🇺 Russia

Launched Jun 16, 1993 from Plesetsk Cosmodrome

Loading…

Next Passes (next 24 hours)

TLE

FreshSource: Space-Track

Epoch: Sep 14, 2026, 14:04 UTC

1 34035U 93036HW  26257.58676514  .00002955  00000-0  69016-3 0  9996
2 34035  74.0641 189.0284 0040001 127.8237 289.8816 14.54658797919744

Track COSMOS 2251 DEB in real time with AllMySat

Download on the App Store